Overview Statistics Trail Chart Weather Telemetry Raw packets
 

This is the latest recevied weather packets stored in our database for station/object WC0AA-WX. If no packets are shown the sender has not sent any weather packets the latest 10 day(s).

<< 1 2 3 4 >>
Time Temp. Humidity Pressure Rain* Wind** Luminosity Snow
1788601755 22.22° C 90% 1012.9 hPa 0 mm - - -
1788601157 22.22° C 90% 1013 hPa 0 mm - - -
1788581861 24.44° C 88% 1013.4 hPa 0 mm - - -
1788578231 25.56° C 86% 1013 hPa 0 mm - - -
1788577631 25.56° C 87% 1012.7 hPa 0 mm - - -
1788577031 25° C 88% 1012.5 hPa 0 mm - - -
1788486626 28.89° C 66% 1010.2 hPa 0 mm - - -
1788485426 30° C 63% 1009.8 hPa 0 mm - - -
1788484226 30.56° C 61% 1009.6 hPa 0 mm - - -
1788402763 27.22° C 71% 1011.6 hPa 0 mm - - -
1788401563 27.78° C 70% 1011.5 hPa 0 mm - - -
1788400362 28.33° C 68% 1011.3 hPa 0 mm - - -
1788347284 23.33° C 75% 1013.6 hPa 0 mm - - -
1788345484 23.89° C 74% 1013.6 hPa 0 mm - - -
1788344884 23.89° C 74% 1013.6 hPa 0 mm - - -
1788343684 24.44° C 73% 1013.7 hPa 0 mm - - -
1788343084 24.44° C 71% 1013.6 hPa 0 mm - - -
1788341884 25° C 69% 1013.6 hPa 0 mm - - -
1788341283 25.56° C 68% 1013.5 hPa 0 mm - - -
1788340683 25.56° C 68% 1013.4 hPa 0 mm - - -
1788340083 25.56° C 68% 1013.4 hPa 0 mm - - -
1788339483 25° C 69% 1013.4 hPa 0 mm - - -
1788334082 25.56° C 67% 1013.1 hPa 0 mm - - -
1788333482 25.56° C 67% 1013.1 hPa 0 mm - - -
1788316589 26.67° C 64% 1012.4 hPa 0 mm - - -

* Rain latest hour (hover to see other rain measurements)
** Current wind speed in m/s (hover to see current wind gust speed)